{"data":{"norad_id":63862,"epoch":"2026-09-19T17:06:41.646528Z","epoch_age_seconds":215004,"freshness":"STALE","line1":"1 63862U 25093AC  26262.71298202  .00018416  00000+0  67666-3 0  9996","line2":"2 63862  43.0028  62.2705 0001331 271.4367  88.6332 15.27599922 77638","mean_motion":15.27599922,"eccentricity":0.0001331,"inclination_deg":43.0028,"raan_deg":62.2705,"arg_perigee_deg":271.4367,"mean_anomaly_deg":88.6332,"bstar":0.00067666,"rev_number":7763,"period_min":94.265519345843,"perigee_km":482.07622712349,"apogee_km":483.90265898263,"semimajor_km":6861.1264430531,"source":"CELESTRAK","updated_at":"2026-09-21T09:00:35.136594Z"}}